Tracking 22879 objects as of 21-Apr-2021
HD Live streaming from Space Station
objects crossing your sky now

COSMOS 1637

Track COSMOS 1637 now!
10-day predictions
COSMOS 1637 is classified as:


NORAD ID: 15619
Int'l Code: 1985-023C
Perigee: 1,471.0 km
Apogee: 1,495.7 km
Inclination: 74.1 °
Period: 115.5 minutes
Semi major axis: 7854 km
RCS: 0.7025 m2 (medium)
Launch date: March 21, 1985
Source: Commonwealth of Independent States (former USSR) (CIS)
Launch site: PLESETSK MISSILE AND SPACE COMPLEX (PKMTR)
aabbcc
Your satellite tracking list
Your tracking list is empty




NASA's NSSDC Master Catalog

Two Line Element Set (TLE):
1 15619U 85023C   21110.93255059 -.00000003  00000-0  89013-4 0  9992
2 15619  74.0548  75.2480 0015741 233.7659 181.7852 12.47206992642973
Source of the keplerian elements: AFSPC